Location: Blackwater Beach
(38.5801°N, 75.1577°W)
Time: 02:31:35
(UTC+00:00)

Cosmos 2297 Rocket - Pass Details

Date: 22 May 2026
Orbit: 838 x 842 km, 71.0° (Epoch: 9 June)

Event Time Altitude Azimuth Distance (km) Brightness Sun altitude
Exits shadow 02:58:48 63° 120° (ESE) 930 2.1 -24.8°
Maximum altitude 02:59:00 64° 109° (ESE) 927 2.1 -24.8°
Drops below altitude 10° 03:04:34 10° 29° (NNE) 2,460 5.0 -25.4°
Sets 03:07:02 0° 26° (NNE) 3,399 5.8 -25.6°
